Theta_e
310 310 310 310 310 310 310 310 310 310 310 310 310 310 310 310 311 311 311 311 312 312 312 312 312 312 312 312 312 312 312 313 314 314 315 316 316 315 313 314 314 314 314 313 313 314 315 316 316 317 316 317 316 318 320 321 319 319 328 326 324 330 327 327 324 317 319 320 318 317 317 317 317 317 316 317 317 318 317 317 317 317 317 316 316 316 317 317
310 310 310 310 310 310 310 310 310 310 310 310 310 310 310 310 310 311 311 311 311 311 311 311 311 312 311 312 312 312 314 314 315 315 315 315 316 314 314 314 314 314 314 313 314 314 316 316 317 317 316 317 318 319 320 320 319 321 327 324 328 334 326 322 320 317 318 318 318 318 317 317 317 316 316 317 316 316 316 316 317 316 316 315 315 316 316 316
310 310 310 310 310 310 310 310 310 310 310 310 310 310 310 310 310 310 310 310 311 311 311 311 311 311 311 312 312 313 314 314 316 316 314 314 314 314 314 315 315 315 314 314 314 314 316 316 316 317 317 317 318 320 320 320 320 321 321 325 332 329 321 319 319 318 318 317 318 317 317 317 317 317 316 316 315 316 317 316 316 317 316 315 316 316 316 316
310 310 310 310 310 310 310 310 310 310 310 310 310 310 310 310 310 310 310 311 311 311 311 311 311 311 312 311 312 313 314 315 317 316 314 314 314 315 315 315 315 315 314 314 314 314 316 317 316 317 317 317 317 319 320 320 321 321 321 326 329 321 318 320 319 319 318 318 318 317 318 318 318 318 316 316 316 317 316 316 316 316 316 315 316 316 316 316
310 310 310 310 310 309 310 310 310 310 310 310 310 310 310 310 311 311 310 311 311 311 311 311 311 311 312 312 313 313 314 317 318 316 314 315 315 315 315 315 315 315 314 314 314 314 315 316 316 316 316 316 316 318 319 320 320 320 320 321 321 318 319 320 319 319 318 317 318 317 318 318 318 317 316 316 317 316 315 315 316 316 316 316 316 316 317 317
309 309 309 309 309 309 310 309 310 310 310 310 310 310 310 310 310 310 310 310 311 311 311 311 311 312 312 313 313 313 314 316 318 317 316 316 315 316 316 315 315 314 314 314 314 314 314 315 315 315 316 315 316 316 318 319 319 320 321 318 318 319 318 318 318 318 317 316 317 317 318 317 317 317 316 316 316 316 315 316 315 315 316 316 316 316 317 316
309 309 309 309 309 309 309 309 310 310 310 310 310 310 310 310 310 310 311 311 311 311 312 312 312 312 313 314 314 315 316 315 316 317 317 316 317 317 316 315 315 314 314 314 314 314 314 315 315 315 315 315 315 316 316 316 317 320 321 319 318 319 317 318 318 317 317 316 316 317 317 317 317 317 316 316 316 316 316 316 315 316 316 315 316 316 316 316
308 308 309 309 309 309 309 310 310 310 310 310 310 311 311 311 311 312 312 312 312 312 313 313 314 314 315 316 317 317 317 316 316 317 317 316 317 316 315 315 315 314 314 314 314 315 316 316 316 315 315 315 315 316 316 315 316 317 318 317 317 317 317 317 316 316 316 316 316 316 316 316 316 317 316 316 316 316 317 316 316 316 316 316 316 316 316 316
308 309 309 309 310 310 310 311 311 311 312 312 312 312 312 313 313 313 314 314 314 315 315 317 317 318 318 319 318 318 318 318 319 319 318 318 317 316 315 315 315 315 315 315 314 315 316 316 316 316 316 316 316 315 315 316 317 316 315 315 314 315 315 316 315 315 316 315 315 314 314 315 315 316 316 316 316 317 317 316 316 316 315 316 316 316 316 316
310 310 310 311 311 312 312 313 314 314 314 315 316 316 317 317 318 318 318 319 319 319 319 320 320 320 319 319 319 319 320 320 320 319 318 318 317 316 315 315 315 315 315 315 315 315 316 316 316 317 317 316 315 315 315 315 316 315 314 314 314 314 315 315 315 315 315 314 314 314 314 313 314 316 316 316 317 317 317 316 316 316 316 316 316 316 316 316
312 313 314 315 315 316 317 318 318 319 319 320 319 320 320 320 320 320 319 319 319 319 318 318 318 317 316 316 316 318 321 321 320 320 319 318 317 316 316 317 318 316 315 315 315 316 316 316 316 317 317 316 314 315 315 314 315 315 314 314 314 314 314 314 314 314 314 313 314 314 313 313 313 315 316 316 317 317 316 316 316 316 316 316 316 316 316 315
316 316 317 318 319 319 319 319 319 319 319 318 318 318 317 317 316 316 316 315 316 316 315 315 314 314 314 313 314 317 319 319 319 319 319 319 318 317 318 319 319 319 317 315 315 316 316 317 316 317 316 315 315 315 315 315 314 314 314 315 315 313 314 315 314 314 313 313 315 313 314 315 315 316 316 316 317 316 316 316 316 316 316 316 316 316 315 315
317 317 318 317 317 317 317 316 316 315 315 314 314 314 314 314 314 314 314 314 314 315 314 314 314 314 313 313 315 317 317 316 316 317 317 318 318 318 318 318 318 319 317 315 315 316 317 317 316 316 316 315 315 314 315 314 314 315 314 314 316 315 316 315 313 315 314 313 314 314 316 319 318 315 316 317 317 316 316 316 316 317 316 316 315 315 314 314
316 316 315 314 314 314 313 313 313 313 313 313 313 313 313 313 314 314 314 314 315 314 314 315 314 314 314 314 316 316 316 316 316 315 316 316 316 316 316 316 316 316 316 314 315 316 317 317 317 316 315 314 315 314 315 314 314 314 313 315 317 316 320 318 313 315 315 314 314 314 317 320 318 315 316 317 317 316 316 317 317 317 317 316 316 315 314 314
314 313 313 312 312 312 312 312 312 312 313 313 313 313 313 313 314 314 314 315 315 315 315 315 314 314 314 314 316 316 316 315 315 315 315 315 315 315 315 315 315 315 315 314 314 315 316 316 316 315 314 314 314 314 316 316 317 315 314 322 322 316 321 320 314 316 316 315 313 314 318 319 316 314 316 317 317 317 316 316 317 316 316 314 314 314 313 314
312 312 312 311 312 312 312 312 313 313 313 313 313 313 313 314 314 315 316 316 317 317 316 315 315 314 313 314 316 316 316 316 316 316 315 315 314 314 315 315 315 314 314 314 314 314 315 315 314 314 313 314 315 315 318 320 322 320 316 321 323 318 319 319 317 316 314 315 313 313 316 318 316 315 316 317 316 316 315 316 316 315 314 314 313 313 313 314
312 312 312 312 312 313 313 314 314 314 314 314 314 314 314 316 318 319 319 319 320 319 316 316 315 314 314 315 316 316 316 316 316 316 315 315 314 314 314 314 314 314 313 313 313 313 313 313 313 314 314 314 315 316 319 320 322 325 320 319 322 320 318 320 321 317 314 316 316 315 314 315 316 314 315 316 316 315 314 314 315 314 314 313 313 313 313 312
312 312 313 313 314 314 315 315 315 315 315 315 315 316 318 320 321 321 321 321 320 318 315 314 314 316 317 316 316 317 316 316 315 315 314 314 314 314 314 314 314 314 313 313 313 312 313 312 313 317 316 314 314 314 318 321 321 324 323 321 322 321 319 320 320 319 317 318 318 318 317 315 316 314 313 315 316 315 314 313 314 314 314 313 313 312 311 310
312 312 313 314 315 315 315 315 316 316 317 318 320 320 321 322 322 322 322 320 318 319 319 316 315 320 320 317 317 317 316 315 315 315 314 314 315 315 314 314 314 313 313 315 315 312 312 314 314 317 319 317 315 314 316 319 319 320 321 320 320 320 320 319 318 318 317 317 318 319 318 317 317 316 314 315 316 315 313 314 313 313 313 313 311 310 309 308
312 313 313 314 315 315 315 316 317 318 319 321 323 323 322 323 324 323 320 318 318 320 321 318 317 319 319 318 319 319 317 316 317 317 317 316 316 315 314 313 314 313 314 318 318 312 312 318 318 319 321 319 317 315 314 315 315 316 317 318 320 320 319 318 318 318 316 315 319 319 318 317 316 317 314 314 315 314 313 313 313 313 313 311 309 308 308 307
313 313 313 314 314 315 316 318 320 321 322 323 323 323 322 322 324 323 320 320 321 321 321 321 320 320 320 320 320 320 320 318 318 318 318 317 316 315 314 314 314 316 315 316 316 312 313 318 320 321 320 318 317 315 314 315 315 316 317 319 320 320 319 317 317 317 314 314 320 320 317 316 316 315 314 314 314 312 312 313 313 313 311 309 308 307 307 307
315 315 315 315 314 315 317 319 321 323 324 324 323 322 322 322 322 321 319 320 321 321 321 321 322 322 322 321 321 322 321 319 317 317 317 316 315 316 315 314 316 319 317 314 315 315 316 318 320 318 316 315 316 315 316 317 317 318 319 319 320 320 319 319 319 317 314 315 321 321 316 316 316 315 314 313 313 313 313 314 312 311 309 307 307 306 307 307
319 319 318 317 317 317 319 321 323 324 324 324 322 322 322 321 321 320 318 318 319 321 321 321 321 321 322 321 322 321 319 319 318 318 317 315 315 316 315 315 316 319 318 316 318 319 319 320 318 314 313 315 316 317 318 317 318 321 319 319 321 319 317 320 321 319 316 316 318 318 316 316 316 316 315 312 312 312 312 312 311 309 308 307 306 306 307 307
321 322 321 319 319 320 321 322 324 324 323 323 322 322 322 321 320 318 316 316 318 320 320 320 320 320 321 320 320 320 318 319 318 318 317 316 316 316 314 314 315 317 317 316 317 319 320 319 316 314 316 317 317 318 318 317 320 324 322 320 321 320 318 319 320 318 318 320 320 317 318 322 319 317 318 314 311 311 311 310 309 308 307 306 306 306 306 307
322 322 322 321 320 321 322 323 323 323 322 322 322 322 322 320 319 317 316 318 321 321 319 319 319 319 319 318 319 318 316 317 317 317 317 315 316 316 315 314 316 317 318 317 316 318 319 316 316 318 318 318 319 319 319 318 320 323 324 322 319 319 319 321 322 321 321 324 322 316 321 327 322 318 321 317 313 312 310 308 308 307 306 305 305 304 304 305
324 323 322 322 321 321 322 322 322 323 322 322 322 321 321 320 318 317 317 321 324 323 320 319 319 318 316 316 316 316 317 316 315 316 316 315 315 315 315 316 316 318 319 317 317 320 319 316 318 321 321 320 319 320 321 320 319 321 323 323 322 320 319 321 321 320 322 323 318 314 319 323 320 318 321 318 315 313 310 308 307 306 305 304 304 303 303 303
325 324 322 322 322 321 322 322 322 323 322 322 322 321 321 320 318 317 320 325 326 323 320 317 317 316 313 313 314 316 320 317 314 315 315 315 315 314 315 317 316 317 316 316 320 323 318 317 319 321 321 321 320 322 323 320 321 323 321 321 323 320 317 319 316 317 321 320 318 317 315 317 319 320 318 317 317 313 310 309 306 305 304 303 302 302 302 302
325 324 324 324 323 322 322 322 323 323 322 323 323 322 321 319 318 317 323 329 328 321 318 315 314 314 312 312 312 314 316 315 314 315 314 314 315 313 315 316 316 317 314 316 324 324 317 318 321 322 321 320 324 327 323 319 321 324 320 317 318 316 315 317 314 317 319 316 320 322 316 316 322 324 318 315 316 313 310 309 306 305 304 302 302 301 300 300
324 324 325 324 324 323 323 322 322 322 322 323 323 323 321 320 318 318 324 328 325 319 316 313 313 312 310 311 312 311 311 312 313 313 312 313 313 312 313 313 312 314 313 316 323 322 317 316 319 323 323 322 327 327 323 322 321 318 316 318 321 318 316 316 315 318 317 316 322 324 318 318 324 330 323 315 316 315 311 309 306 304 303 302 301 300 300 301
322 323 324 324 324 324 323 323 322 322 322 322 323 322 321 320 318 322 327 326 323 320 314 311 313 312 310 311 311 310 310 311 311 311 311 312 313 312 312 311 310 314 319 319 321 320 315 312 313 317 319 319 323 319 316 318 316 313 317 322 324 323 320 318 319 321 318 319 326 325 321 318 321 332 329 317 317 317 311 309 306 303 302 301 301 300 300 300
322 323 323 323 324 324 323 323 323 322 321 321 322 322 321 320 320 326 329 323 321 320 313 312 314 311 311 315 314 311 310 311 311 312 313 312 313 311 311 314 313 317 324 323 321 318 314 313 313 314 314 314 317 315 313 314 312 314 321 322 321 325 325 320 321 322 319 324 331 326 322 319 318 329 330 318 316 315 312 310 305 303 302 301 300 300 299 300
322 323 323 323 324 323 323 323 322 322 321 321 322 322 322 321 322 326 325 320 323 323 316 317 316 313 315 317 317 314 312 312 310 312 316 315 316 314 315 321 320 319 322 324 324 319 318 319 316 313 313 313 317 318 317 318 317 318 321 320 321 324 323 321 321 322 321 326 329 321 318 318 319 325 325 318 315 312 310 308 304 302 301 300 299 299 299 300
323 323 323 323 322 322 321 321 321 320 320 321 321 321 321 323 324 325 323 322 324 321 318 319 317 317 318 317 318 316 314 315 312 312 315 316 317 317 317 322 322 319 319 321 323 321 322 322 317 314 314 314 316 317 319 322 318 316 318 320 323 322 319 321 322 319 319 323 324 318 315 318 321 320 316 313 309 307 306 304 303 302 300 300 299 298 299 301
322 322 321 321 320 320 319 319 319 319 320 320 321 321 321 323 323 323 323 323 322 320 319 319 317 318 319 320 321 319 316 318 315 312 315 316 317 319 318 318 317 318 319 319 319 320 322 322 320 319 317 315 315 315 322 327 319 315 319 321 323 325 323 321 320 319 320 324 324 319 316 320 322 315 309 306 303 302 303 302 301 301 300 299 298 299 300 302
321 320 320 319 318 318 318 318 318 319 320 320 320 322 322 323 323 323 324 323 322 322 320 319 320 320 320 322 323 320 317 319 317 315 317 318 319 323 323 319 317 318 320 320 320 318 318 321 322 317 314 314 315 314 318 325 321 315 316 319 321 324 324 321 321 321 321 322 322 318 319 323 319 309 304 304 302 301 301 300 300 299 299 299 299 300 302 302
319 318 318 318 317 318 317 317 318 319 321 320 321 323 322 322 324 325 324 321 321 323 320 321 322 321 322 322 322 321 318 318 319 317 319 319 319 321 322 320 318 316 317 319 321 318 316 320 321 314 311 313 313 313 314 317 320 317 315 321 324 322 319 319 321 321 317 317 318 317 318 321 318 310 305 304 303 302 301 300 299 299 299 299 300 301 302 302
317 317 317 317 316 317 317 317 318 319 320 320 321 323 320 321 322 322 321 318 318 321 321 322 323 321 322 322 322 322 319 318 319 318 321 321 319 320 320 317 316 315 315 316 319 320 317 319 320 316 315 313 309 311 313 312 316 319 318 321 322 318 317 319 320 319 318 317 317 316 316 317 318 314 308 305 304 303 301 299 298 298 299 299 300 301 302 302
315 315 315 315 315 316 316 316 317 319 319 319 321 321 320 320 319 318 319 317 317 321 322 323 322 320 321 321 321 322 319 318 319 318 322 321 318 319 319 316 314 312 313 313 316 320 319 318 320 317 317 315 311 313 317 313 311 314 316 317 317 317 320 320 319 319 319 317 318 319 318 317 317 315 311 308 305 303 301 300 300 299 299 299 300 301 302 303
313 312 312 313 313 314 314 315 317 318 318 320 322 321 320 320 318 316 317 317 318 321 323 323 321 320 320 319 320 320 318 319 320 319 320 320 317 317 316 317 315 311 311 314 317 320 320 320 320 316 315 317 317 319 322 318 312 313 314 315 317 318 318 318 318 318 318 317 317 318 318 317 315 313 312 308 304 302 303 304 302 300 299 301 303 303 303 303
310 310 311 312 312 312 313 313 315 317 318 319 320 319 318 317 317 316 317 317 317 320 321 322 321 320 320 318 319 318 318 320 320 319 320 319 317 316 316 317 317 313 311 313 317 319 319 318 319 319 316 317 319 321 322 320 316 316 316 316 316 316 317 317 316 317 317 316 317 317 317 319 314 309 308 306 304 303 304 305 303 300 301 304 304 304 304 303
309 309 310 310 311 311 311 312 314 316 318 317 316 317 316 315 316 317 317 316 317 318 319 320 320 319 319 319 319 317 317 319 319 318 318 318 316 316 315 314 315 315 315 317 319 319 318 318 320 321 319 317 320 321 318 315 315 317 318 318 318 316 317 316 315 316 316 315 317 316 316 318 312 306 305 305 304 303 302 302 301 301 303 305 304 304 303 302
309 310 310 309 309 310 311 311 313 314 316 316 315 315 315 314 315 316 316 317 317 317 317 317 318 317 318 319 318 316 316 318 318 318 318 319 319 318 315 312 312 314 316 318 318 314 314 317 319 320 318 316 318 317 313 312 313 316 316 318 319 317 316 316 315 316 316 315 316 315 315 315 311 306 305 304 302 302 302 302 302 303 305 304 304 304 302 301
308 310 310 308 308 309 310 311 311 312 314 314 314 314 314 314 315 316 316 316 317 317 316 317 317 317 317 317 316 316 316 318 318 319 320 321 318 314 311 311 312 313 314 316 316 313 314 317 317 317 317 316 315 313 311 313 315 315 314 314 315 314 314 315 314 313 313 313 315 314 314 315 311 306 303 302 301 301 303 304 304 305 305 305 304 303 301 299
307 307 308 308 307 308 309 311 311 311 312 313 313 313 313 313 314 315 316 316 317 317 317 317 317 316 315 314 314 316 316 317 318 318 319 320 316 310 308 310 312 312 312 314 315 313 315 316 314 315 315 315 314 312 311 314 315 313 312 312 312 312 311 312 311 311 311 311 313 313 313 314 312 306 303 302 302 301 301 303 305 305 305 304 304 302 300 298
306 307 308 308 308 308 309 310 311 311 312 313 314 313 313 313 313 314 315 315 315 316 316 316 316 315 314 315 315 316 316 316 316 316 317 316 313 309 307 309 310 310 310 311 311 312 315 315 313 313 313 312 312 311 311 314 314 310 309 311 310 309 309 309 309 310 310 310 310 310 311 311 310 307 305 306 306 304 302 302 303 303 303 303 302 300 299 297
306 308 309 309 308 308 309 310 311 311 312 313 314 313 313 313 313 313 314 314 315 315 315 316 315 314 315 316 316 316 316 315 315 316 316 315 312 309 307 308 308 308 308 309 309 311 314 313 312 313 313 311 310 309 310 311 311 310 310 310 309 307 307 307 308 308 308 308 307 307 307 307 307 306 305 305 307 306 303 301 301 301 301 301 299 298 297 296
305 308 310 309 308 308 308 309 310 311 311 312 313 313 313 313 312 312 313 314 314 314 314 314 314 315 316 316 316 316 315 315 314 315 315 314 311 308 306 306 307 307 307 307 308 311 313 312 311 311 311 311 310 309 308 307 307 308 308 308 307 306 306 306 307 307 307 306 305 305 304 304 305 304 304 304 304 304 301 300 301 301 300 299 298 297 296 295
305 306 307 309 309 309 309 309 310 311 311 311 312 312 313 313 312 312 314 314 313 314 314 314 314 315 316 315 315 315 315 314 314 314 314 313 310 309 307 306 305 306 306 306 307 310 312 312 310 309 310 310 309 307 306 305 305 305 305 305 305 304 304 304 304 304 305 305 304 303 303 303 303 303 303 302 301 301 300 299 300 299 298 297 297 296 295 294
303 303 302 305 307 308 308 309 309 310 311 311 311 311 312 313 312 311 314 315 314 313 313 314 314 314 315 315 314 314 314 313 313 312 312 311 309 309 309 307 305 304 305 306 305 306 309 310 308 308 307 307 306 305 304 304 304 304 304 304 304 303 303 303 303 303 303 304 303 303 303 303 302 301 302 301 300 299 298 298 298 298 297 296 296 295 295 294
301 301 300 302 304 305 306 308 309 309 310 309 310 311 310 311 311 312 312 312 314 314 312 313 314 313 313 313 312 313 312 312 313 312 310 309 308 308 310 308 305 303 304 306 305 303 305 307 306 306 306 306 305 304 304 305 304 304 303 302 302 301 301 301 301 301 301 301 301 301 301 301 301 300 300 299 298 297 296 296 296 296 296 295 294 294 293 293
299 299 298 299 302 304 306 307 308 309 309 309 309 309 310 310 311 312 311 308 308 311 311 312 313 311 310 310 311 311 308 307 309 308 305 307 307 306 307 307 304 304 305 305 304 304 306 305 304 305 305 305 302 302 303 304 303 302 301 300 300 299 299 300 300 300 300 300 300 300 300 301 301 300 297 296 294 294 293 293 293 294 293 293 292 292 292 292
297 298 297 297 300 304 305 307 308 308 308 308 308 308 309 309 308 310 311 306 304 306 308 308 309 309 309 309 309 308 304 303 304 303 302 303 303 302 303 304 303 304 305 304 304 305 306 306 305 305 303 301 300 300 302 301 300 299 298 299 299 299 299 299 299 300 300 300 300 300 300 301 300 299 298 295 293 292 292 292 292 292 292 292 292 292 292 291
Wind_Speed
4 4 4 4 3 3 3 3 4 4 4 4 4 4 4 4 4 4 5 5 5 6 6 6 7 8 8 10 10 12 13 13 15 17 16 12 8 4 3 5 6 6 6 5 4 3 2 2 4 3 4 4 2 2 1 2 2 2 2 3 1 3 3 4 3 3 2 3 5 4 4 3 2 5 5 5 8 14 17 22 24 22 23 23 22 22 23 24
5 4 4 4 4 4 3 4 4 4 4 4 5 5 5 5 5 6 6 7 7 8 8 8 8 9 10 10 11 13 13 15 17 15 11 7 2 4 3 6 8 7 7 6 4 2 1 5 6 2 3 4 2 2 2 3 4 3 2 2 3 5 4 6 6 8 6 4 9 8 7 5 3 8 9 5 9 14 13 21 26 27 29 26 21 18 17 17
6 6 5 5 5 5 5 5 5 5 5 5 6 6 6 6 6 7 7 7 8 9 9 9 9 10 10 10 11 12 13 16 15 8 6 4 7 6 4 9 11 10 8 6 4 1 3 3 5 3 3 4 3 5 4 3 4 5 4 1 6 6 6 13 14 14 14 11 9 8 7 8 10 12 11 7 11 12 11 17 20 25 32 30 23 19 19 20
8 7 7 6 6 6 6 6 6 6 6 6 7 7 7 7 7 8 8 8 9 9 9 10 10 10 10 11 11 11 14 14 7 5 5 5 6 3 6 11 13 12 8 6 5 2 4 2 2 3 4 4 5 6 6 7 6 5 6 4 6 5 5 13 15 17 21 16 10 10 10 11 15 14 12 10 8 7 14 22 22 25 34 34 30 26 26 27
9 8 8 7 7 7 7 7 7 7 7 7 7 8 8 8 9 9 9 10 10 10 10 11 11 11 11 12 11 11 12 7 2 3 2 1 2 5 9 13 15 12 8 5 4 2 4 5 4 4 4 4 4 3 5 12 11 4 6 11 11 7 4 11 16 17 20 17 13 12 9 11 15 15 15 11 7 11 21 28 27 29 34 35 33 31 29 29
9 9 9 9 9 8 8 8 8 8 8 9 9 9 9 9 10 10 10 11 11 11 11 12 12 12 12 12 12 12 7 2 2 2 6 8 8 10 13 15 14 9 6 4 3 3 3 4 5 5 3 3 4 4 8 13 13 5 6 10 16 15 10 13 18 19 20 16 13 12 11 14 15 17 20 13 15 26 33 32 32 33 35 35 35 33 32 31
10 10 10 10 9 9 9 9 9 9 9 10 10 10 10 11 11 11 12 12 12 12 12 13 13 13 13 13 13 11 7 10 11 9 12 11 10 12 14 14 10 6 5 4 4 3 2 3 6 7 4 3 5 7 11 13 10 8 5 6 13 15 12 14 18 19 19 14 14 15 16 15 11 15 18 16 25 35 35 32 32 31 31 32 33 31 30 27
11 11 10 10 10 10 10 10 10 10 11 11 11 11 12 12 12 13 13 13 14 14 14 14 15 15 14 14 13 10 11 16 14 12 13 11 11 13 11 9 5 5 5 6 6 3 2 3 7 8 4 3 5 6 8 9 5 5 4 4 6 9 12 16 18 20 21 21 21 18 17 18 16 18 19 24 33 33 29 29 28 25 25 26 27 27 24 22
11 11 11 11 11 11 11 11 11 11 12 12 12 13 13 14 14 14 15 15 16 15 16 15 16 17 15 14 11 9 14 15 12 10 10 11 13 12 10 8 6 6 5 7 7 5 5 5 7 7 3 3 5 7 6 4 3 3 4 7 9 11 15 18 20 24 26 27 24 14 15 21 20 16 17 28 31 27 27 28 27 24 23 24 25 26 23 22
11 11 11 11 11 12 12 12 12 13 13 13 14 14 14 15 15 15 16 16 16 16 16 15 16 16 15 14 8 6 12 12 9 9 8 10 12 12 11 9 8 8 6 8 8 8 8 8 7 5 5 5 3 6 7 3 4 6 9 12 13 14 19 21 20 30 30 25 24 13 12 24 19 6 10 26 26 24 29 29 28 27 26 26 25 25 25 24
12 12 12 12 12 13 13 13 13 14 14 14 14 15 15 15 15 15 15 15 15 15 14 14 15 14 14 14 9 8 12 12 10 10 10 11 12 12 13 12 11 10 9 9 9 10 10 11 10 6 4 3 3 7 9 5 5 9 10 11 15 15 19 24 20 29 24 14 22 14 10 21 12 4 14 27 25 25 30 30 28 26 26 26 25 25 24 22
12 13 13 13 13 13 13 13 14 14 14 14 14 14 13 13 13 13 13 13 14 13 13 13 13 13 13 14 15 14 14 14 13 14 14 15 15 15 16 16 14 12 11 11 12 12 12 13 12 8 6 3 3 6 6 5 7 12 9 5 11 9 12 22 19 24 17 7 15 9 4 11 5 9 22 25 25 25 26 26 26 25 25 25 23 22 19 17
13 13 13 13 12 12 13 13 13 13 13 13 12 12 12 12 12 12 12 12 12 12 12 13 13 13 12 13 15 14 12 12 13 15 16 17 18 18 17 16 12 11 11 11 13 13 13 15 14 11 9 6 4 4 5 8 9 11 5 2 6 6 6 17 15 16 11 6 11 10 2 7 7 17 23 21 24 22 19 22 27 28 29 26 22 20 15 13
12 12 12 11 11 11 12 12 12 11 11 11 11 11 11 11 11 11 11 11 12 12 12 13 13 12 11 12 13 12 12 12 12 14 16 17 19 18 16 13 10 10 10 11 13 13 13 13 13 11 10 9 8 7 7 8 6 5 2 2 2 2 5 12 11 8 5 3 11 13 3 7 8 15 19 18 20 19 21 26 30 32 31 27 24 21 12 6
10 10 9 9 9 10 10 10 10 10 10 10 10 10 10 10 10 10 10 10 10 11 11 12 11 10 10 13 13 11 11 12 12 12 13 15 16 15 12 10 8 8 9 10 12 13 12 11 10 8 7 9 8 4 4 4 4 2 1 3 2 3 4 11 13 8 3 1 6 8 3 5 6 14 17 17 19 20 23 28 32 32 30 26 22 14 4 2
10 9 8 8 8 8 8 8 8 8 9 9 9 9 9 9 9 10 10 10 10 11 10 9 9 7 6 10 9 7 8 9 9 9 10 12 13 10 7 5 5 6 8 10 11 11 11 9 6 5 5 6 2 2 4 4 4 2 2 4 3 3 3 5 10 7 3 3 0 3 3 4 5 10 15 16 22 25 24 29 34 29 26 22 12 4 5 4
9 8 8 7 8 7 7 7 7 7 8 8 8 9 9 9 9 10 10 10 11 10 9 7 6 5 7 10 8 7 8 7 7 8 9 9 9 6 3 3 3 5 7 8 9 9 8 6 4 3 4 2 2 4 3 2 4 4 2 3 4 5 3 3 7 7 3 3 3 3 4 6 7 10 16 21 26 27 25 28 29 27 23 11 7 9 9 7
9 8 7 8 8 7 6 6 6 6 7 8 9 9 9 9 9 11 11 11 10 7 6 7 5 2 6 7 6 7 7 7 6 6 7 6 5 3 3 3 3 4 5 5 5 6 5 4 4 1 2 1 1 4 2 4 5 4 4 3 4 4 4 5 5 5 3 3 5 6 6 8 8 11 18 24 27 27 25 20 21 24 14 4 10 13 13 13
9 8 8 8 8 7 6 6 6 6 7 7 9 9 9 9 9 9 8 9 8 4 3 6 6 2 3 5 7 8 7 7 7 7 8 7 6 6 5 4 4 5 5 2 3 7 7 3 3 1 2 3 5 7 9 9 8 8 7 5 5 5 5 6 6 5 5 4 5 7 7 6 8 9 13 24 31 28 22 18 20 17 1 13 15 17 17 17
9 9 9 9 8 8 7 7 7 7 7 7 8 8 7 6 4 4 6 9 10 8 8 9 10 12 12 11 9 8 8 8 9 10 9 8 7 8 8 7 6 4 3 4 3 7 9 4 2 4 6 9 10 11 11 9 8 7 6 5 5 5 5 5 6 7 4 3 5 6 4 6 8 8 14 28 30 21 18 18 15 2 14 19 19 21 19 20
10 9 9 10 10 9 9 8 7 7 8 7 7 6 4 3 2 3 6 10 13 14 16 17 17 19 20 16 13 13 12 9 9 10 8 8 8 7 9 9 5 2 4 5 4 4 7 4 5 10 11 12 10 9 7 7 6 5 5 5 4 4 5 5 6 7 3 3 5 4 5 7 9 9 17 26 20 12 14 12 2 17 21 20 21 21 20 20
9 10 10 12 11 11 10 9 8 8 8 7 6 4 4 4 5 6 7 9 15 17 17 19 19 21 23 20 20 21 16 9 8 10 9 10 11 8 10 9 4 3 4 4 5 3 4 3 9 14 12 9 8 6 6 7 6 5 4 2 4 4 3 5 6 4 3 2 5 6 6 8 10 11 17 21 12 6 5 5 16 23 22 21 21 21 21 21
8 8 10 12 11 10 11 10 9 8 7 6 5 4 4 5 5 7 6 6 13 16 16 18 21 23 24 20 19 19 15 9 8 10 11 11 13 11 11 9 5 4 3 5 6 5 4 6 14 16 10 6 7 8 7 6 4 4 4 2 5 3 1 3 6 5 4 2 3 4 6 5 7 12 14 10 6 14 18 21 21 23 24 22 21 21 21 22
6 7 8 9 9 9 9 9 8 7 7 6 5 5 4 4 4 6 6 4 7 12 14 16 17 17 19 17 15 14 11 8 6 8 12 14 14 10 9 10 7 4 5 8 10 8 6 9 13 11 6 7 8 9 6 4 3 3 4 4 4 4 4 5 4 5 5 4 2 3 5 4 5 9 9 4 15 16 18 23 23 22 23 22 21 22 22 23
7 8 9 8 8 7 7 8 7 5 5 5 5 5 4 4 3 5 5 3 4 7 9 10 9 9 11 12 12 10 5 5 6 8 13 16 14 6 5 10 8 4 7 8 8 7 7 10 10 6 4 6 7 7 5 4 2 4 3 6 7 7 6 4 3 5 5 4 4 5 5 6 4 4 9 2 8 8 10 16 18 19 20 21 22 22 22 24
11 10 10 9 7 6 7 7 5 5 4 5 5 4 3 3 3 5 4 2 3 4 4 5 5 5 6 8 9 7 3 4 6 10 16 17 14 6 2 5 5 4 6 5 3 3 5 6 4 4 4 4 4 5 4 6 3 2 4 4 4 3 1 2 4 4 2 2 3 3 1 6 3 3 10 3 6 5 6 9 11 16 19 20 21 21 21 22
16 13 12 11 9 8 8 7 6 6 5 6 5 4 3 2 1 3 3 2 3 3 4 3 3 3 5 6 9 8 2 3 7 11 16 15 11 7 3 2 2 3 3 3 0 2 3 1 3 4 3 4 3 4 5 7 6 2 4 3 6 5 3 2 4 2 3 2 5 3 4 4 3 6 9 2 8 5 5 6 8 14 18 19 20 19 19 20
17 15 15 13 11 11 10 8 8 8 7 7 6 5 3 2 1 1 2 2 2 3 3 2 3 5 6 8 9 7 4 6 6 6 13 12 9 5 3 4 2 3 3 5 3 5 1 3 3 5 4 3 5 5 5 8 5 5 5 4 5 3 3 3 3 1 2 2 5 6 3 2 4 6 5 4 8 4 4 4 5 10 16 18 18 17 18 18
18 18 18 16 14 15 14 12 12 11 10 9 8 6 5 4 1 3 2 2 0 2 2 3 4 5 7 7 6 4 5 4 2 5 9 9 9 4 1 3 1 2 3 4 5 5 0 3 5 6 5 4 7 5 5 8 4 4 3 4 4 2 1 1 3 2 2 2 4 7 3 2 5 6 3 3 4 4 4 4 5 10 15 17 17 17 17 18
22 21 21 20 19 20 19 17 16 15 13 12 10 8 7 5 3 2 4 4 1 2 3 4 3 6 8 5 2 3 4 2 4 8 5 4 8 4 0 1 1 2 2 2 2 5 1 1 1 4 5 6 5 1 3 5 5 4 4 4 6 5 3 2 2 3 3 2 6 7 6 5 3 5 3 2 3 7 7 5 6 10 15 17 15 15 16 18
25 23 24 24 23 22 20 19 17 16 15 14 12 10 7 3 2 4 6 2 1 1 4 3 2 5 7 4 2 3 2 2 5 7 3 2 4 2 1 1 1 3 3 4 3 4 2 0 2 4 6 5 5 3 3 3 3 5 4 4 4 4 4 4 4 4 2 4 7 7 6 7 4 5 5 1 3 10 11 9 9 10 14 16 14 14 15 17
26 26 26 25 23 21 19 17 13 14 16 15 14 11 7 1 2 4 3 1 1 2 3 3 2 4 5 3 4 4 3 2 5 5 3 3 3 2 2 3 3 1 3 3 2 4 2 4 4 2 3 4 5 2 3 5 4 5 4 5 3 2 3 2 2 0 2 5 6 4 2 3 6 6 6 3 4 3 7 12 16 16 17 17 15 14 15 16
28 26 24 21 19 18 17 15 12 13 15 16 16 11 5 2 4 3 3 2 1 1 2 3 2 3 5 4 3 4 3 3 5 4 3 4 3 3 4 4 6 3 2 4 1 2 2 5 4 0 2 5 8 4 2 2 1 4 4 4 4 1 0 3 3 1 3 5 6 4 1 1 4 5 2 4 6 7 15 21 22 22 21 19 16 15 15 16
24 21 18 17 16 16 15 14 13 13 15 18 15 7 3 4 3 2 5 5 1 0 1 3 2 2 3 3 4 4 3 2 5 4 3 4 3 3 4 5 6 4 2 3 1 2 2 5 3 4 2 6 9 6 6 4 3 4 4 5 5 4 4 3 3 3 3 4 5 3 1 1 3 1 3 8 12 16 23 25 24 23 21 18 16 16 16 16
19 16 16 16 16 16 14 15 15 14 17 20 12 4 4 5 1 2 4 3 0 1 2 2 3 3 1 2 2 3 3 2 3 4 3 4 4 4 3 4 7 6 3 2 2 2 4 5 6 2 1 8 6 4 6 6 1 2 3 4 2 4 5 2 4 5 3 3 4 2 2 4 3 4 5 10 15 18 20 21 22 20 17 16 16 16 16 15
17 17 18 17 18 17 17 18 17 16 21 19 7 4 6 3 2 3 2 2 2 3 2 1 2 3 2 2 2 3 2 1 3 3 2 3 3 4 5 3 5 9 7 4 2 2 3 5 5 3 2 4 3 1 3 4 0 1 3 2 4 4 5 1 4 2 2 3 4 2 2 4 1 4 5 8 11 11 12 14 16 15 14 15 15 15 14 12
18 18 18 18 18 18 18 20 19 20 23 16 6 6 4 2 4 4 1 3 4 4 4 2 2 3 3 2 3 4 2 1 2 3 2 3 2 4 5 1 1 5 7 4 2 2 3 3 5 1 1 3 0 2 2 3 3 3 2 4 3 1 3 2 1 3 2 4 4 2 4 5 2 1 2 6 7 6 6 7 11 11 12 13 13 13 12 9
14 14 15 16 17 17 18 21 21 22 19 10 7 8 4 2 6 5 2 3 4 4 4 3 3 4 4 3 3 4 4 2 3 3 2 2 3 3 5 2 3 2 1 3 2 1 3 1 6 1 3 2 1 4 3 4 4 4 3 2 1 1 1 0 1 2 4 5 4 4 7 5 2 3 2 4 5 5 4 4 6 6 9 12 12 11 9 6
9 9 8 9 13 17 18 19 21 20 13 6 6 6 3 2 5 7 6 2 2 3 2 3 4 2 2 3 3 2 4 4 4 4 1 2 3 0 3 2 1 4 4 5 4 1 2 2 4 3 1 0 3 4 1 2 4 4 2 2 1 3 3 2 2 3 3 4 4 4 5 3 2 3 4 5 7 7 5 4 4 7 10 12 11 9 6 4
7 5 2 1 6 13 18 20 19 15 8 4 4 2 1 1 5 10 10 3 2 3 2 3 4 3 3 2 2 2 3 4 4 4 2 3 3 1 2 2 2 1 5 6 4 1 2 2 3 4 3 2 1 1 4 4 0 2 2 1 2 1 1 2 2 2 3 3 3 4 5 3 3 2 5 8 8 8 8 7 6 12 15 14 10 7 6 5
5 2 1 1 1 7 16 16 11 8 4 2 2 1 1 1 3 7 10 9 5 3 3 2 2 3 3 3 3 2 2 3 4 3 2 2 2 1 0 2 2 2 3 6 3 1 1 2 2 3 3 1 4 5 4 6 4 4 2 3 3 2 1 3 4 2 3 3 3 3 5 4 2 2 4 8 7 8 11 11 11 16 17 13 10 8 8 7
6 2 1 2 1 6 13 10 6 6 4 3 3 2 3 3 2 3 5 7 6 4 3 3 2 2 2 3 4 2 2 2 3 3 3 3 2 1 1 2 3 4 4 3 0 1 2 3 2 3 4 4 6 5 1 1 3 4 2 2 3 3 3 3 5 2 1 1 1 1 3 2 1 2 3 6 8 12 16 15 14 15 14 11 10 10 10 9
8 5 4 3 4 10 11 5 5 6 4 3 4 5 6 3 2 4 5 5 4 4 4 3 4 5 4 4 4 3 2 3 4 5 4 2 2 1 2 1 5 5 4 2 1 1 3 3 1 3 5 4 4 4 4 5 1 2 1 2 1 2 4 4 3 1 0 2 1 2 4 2 1 4 3 6 10 12 14 14 12 11 11 11 12 12 11 9
7 7 7 6 9 15 12 4 4 7 7 5 3 6 8 7 6 6 6 6 6 5 3 3 5 7 6 5 5 6 6 4 4 6 5 2 2 1 1 2 4 2 2 2 3 2 1 2 2 0 3 5 6 5 4 5 3 1 2 2 2 3 3 2 1 1 2 3 3 3 5 2 3 3 2 4 6 8 11 13 12 11 12 12 13 12 10 8
4 5 7 11 18 23 17 9 6 6 8 8 6 7 8 7 10 12 9 8 9 7 4 3 7 8 7 6 7 7 7 5 3 3 2 2 1 1 3 4 4 3 3 4 7 7 3 2 4 3 3 5 5 4 2 0 2 1 2 3 1 3 3 1 0 1 2 1 1 3 4 3 2 3 3 4 4 5 9 11 11 12 12 11 12 11 9 7
6 4 5 10 20 27 25 18 11 5 6 8 8 8 10 8 8 12 13 10 12 12 7 4 6 6 5 7 6 5 5 4 3 3 2 3 1 1 3 5 6 8 7 7 8 6 3 1 3 5 6 7 6 5 4 3 0 3 4 6 7 4 3 3 2 2 3 2 3 7 7 5 9 11 7 3 3 5 10 14 17 15 11 9 9 9 7 6
5 3 6 9 12 18 20 19 14 6 4 8 6 5 11 11 6 8 13 12 13 14 8 3 6 7 6 7 6 4 5 3 3 4 3 3 2 1 2 5 6 8 7 6 5 4 4 1 3 6 7 7 5 5 2 3 2 5 6 8 10 7 3 4 3 5 5 2 6 11 8 5 10 14 9 4 5 7 9 13 17 14 7 7 7 6 5 5
7 2 8 12 8 7 11 16 18 12 7 7 5 3 7 10 8 8 9 7 10 14 9 3 6 8 7 8 6 4 5 5 4 5 4 3 3 2 2 3 3 4 4 3 2 4 5 3 4 4 5 7 5 3 1 1 3 5 6 9 11 10 6 5 7 8 7 6 9 12 9 8 11 12 8 9 11 7 2 3 5 2 5 8 7 5 5 3
10 5 5 9 6 5 11 19 20 17 12 8 5 5 5 7 8 8 5 3 4 8 9 6 7 9 8 7 6 5 6 6 5 4 3 3 3 3 2 2 1 2 4 3 1 3 4 2 3 3 3 7 6 3 1 1 4 6 8 11 12 11 8 7 9 9 7 9 11 11 12 14 13 10 9 12 11 2 5 4 4 6 8 8 6 5 3 2
8 4 4 4 4 4 8 13 14 11 11 10 8 8 5 4 6 5 3 4 4 4 7 9 7 7 8 8 7 6 6 6 6 5 5 5 3 2 2 2 1 1 3 2 0 1 3 1 1 2 1 6 4 2 3 4 5 7 11 14 12 11 10 10 10 8 7 10 12 11 13 14 10 6 6 6 2 6 7 6 7 8 7 6 5 4 3 2
10 4 4 5 3 3 4 7 9 7 7 9 9 8 6 7 7 4 2 0 4 3 5 9 8 4 4 7 7 7 6 7 8 6 6 6 5 3 1 3 5 4 2 1 1 1 2 1 0 4 1 6 2 4 4 3 3 7 14 17 16 12 10 10 8 7 9 10 10 9 9 8 6 4 4 3 6 8 7 7 7 6 6 5 3 4 3 4
13 10 9 4 2 4 4 4 6 7 7 8 9 8 7 8 7 6 1 1 3 2 2 8 10 6 3 6 6 7 10 13 12 10 9 8 7 6 5 4 8 7 4 3 1 1 3 3 1 4 2 4 1 5 4 2 5 7 11 12 13 11 9 9 7 9 11 9 7 7 7 6 5 5 4 3 4 6 6 6 5 3 4 5 7 8 7 6
Wind_Direction
201 201 200 203 202 207 211 214 219 223 227 231 234 235 238 244 248 252 257 266 272 278 286 292 301 307 310 314 318 321 325 326 322 318 317 313 288 270 355 2 358 352 343 335 321 298 283 354 347 345 349 358 9 283 278 257 207 115 84 105 242 219 207 211 201 296 272 252 290 300 336 28 7 343 322 292 271 271 282 286 286 285 282 283 293 303 296 289
219 218 220 221 223 226 229 233 236 239 243 246 245 249 253 255 260 263 267 274 278 283 289 296 301 305 308 313 317 321 326 326 322 323 328 321 215 150 59 17 5 352 339 328 321 299 116 35 4 339 335 330 306 256 238 211 197 178 129 139 230 211 229 274 294 319 335 309 307 324 349 2 338 326 327 307 275 277 280 283 286 288 290 293 300 301 298 302
230 230 233 233 236 239 242 245 246 250 250 253 255 256 260 261 265 268 272 276 278 283 288 292 296 300 304 308 313 320 326 327 329 348 21 65 115 109 33 357 350 347 337 314 302 223 139 37 340 274 263 288 254 238 225 192 203 204 174 170 242 225 265 289 300 318 324 322 323 333 335 322 312 313 315 292 281 285 270 273 281 286 292 299 301 297 298 308
233 235 239 240 245 247 248 251 252 255 255 257 259 259 262 263 265 268 270 273 276 279 283 287 290 295 298 304 311 318 327 331 346 39 58 97 102 59 352 333 330 335 328 301 291 223 169 175 284 259 241 267 259 238 218 204 211 191 171 191 236 240 275 279 293 310 313 319 324 320 322 315 309 309 300 285 290 283 262 269 274 279 290 295 295 293 293 297
236 238 241 242 245 248 251 254 255 257 259 261 262 264 266 266 267 269 271 273 275 278 281 285 287 292 295 300 306 315 332 347 51 59 36 61 324 314 318 314 313 318 307 285 285 226 193 197 209 243 246 261 267 242 221 217 214 195 203 216 230 246 266 274 290 304 304 308 310 313 317 307 307 302 289 278 267 267 272 279 282 282 287 290 291 293 293 292
243 243 244 245 247 248 251 253 256 258 260 262 263 266 269 270 272 273 275 276 278 279 282 284 287 290 294 298 302 313 325 297 258 297 296 294 286 288 301 304 308 308 284 247 245 203 198 203 204 234 230 237 249 226 250 239 216 217 251 232 236 245 250 274 291 300 302 299 292 299 297 298 306 298 289 271 257 277 284 285 286 286 286 288 290 290 290 291
249 249 248 250 251 252 255 256 258 260 262 265 266 270 271 274 276 277 278 279 279 282 284 287 289 290 295 299 302 307 284 266 278 281 287 290 277 286 299 304 305 284 249 220 231 204 195 200 207 234 224 236 248 226 262 272 231 216 255 243 243 252 260 282 295 299 302 295 285 295 296 291 290 289 293 280 274 285 293 291 287 289 290 290 288 287 287 289
251 252 253 254 256 257 259 261 263 265 268 270 272 274 275 277 279 280 281 282 283 285 287 290 291 292 296 299 302 300 275 278 292 288 285 281 276 288 293 301 299 256 237 221 232 205 200 224 225 240 231 248 264 255 288 312 281 228 247 271 278 289 292 298 302 298 297 293 291 294 286 276 273 279 285 282 284 292 301 301 295 293 294 292 289 288 289 289
253 256 258 260 262 263 265 268 270 272 274 276 278 279 280 282 282 284 285 286 287 288 289 291 291 292 293 293 297 293 283 291 300 292 284 275 274 278 276 288 283 258 237 221 228 199 205 238 244 242 242 283 291 292 319 348 305 298 324 330 322 309 303 303 303 296 291 287 285 282 276 276 274 280 281 278 289 303 306 305 302 298 291 287 288 289 292 292
258 261 264 267 268 270 272 274 276 277 279 279 281 282 284 285 285 287 287 288 288 288 290 289 288 289 288 285 278 270 289 299 299 290 279 268 267 264 266 276 273 264 245 226 220 205 215 238 255 257 271 300 313 303 325 327 284 330 345 334 311 303 305 301 296 290 287 284 277 257 261 274 270 264 271 279 297 310 303 304 305 300 292 286 286 288 292 292
262 265 268 271 272 275 276 277 279 278 279 279 280 282 283 284 286 286 286 287 286 287 287 284 284 283 283 280 247 243 288 296 290 284 271 266 265 261 266 272 271 263 247 230 214 212 223 233 252 266 272 296 317 312 321 306 300 325 336 330 305 308 307 294 286 282 282 281 270 241 238 273 270 198 249 275 300 305 298 301 301 298 296 292 289 289 292 295
261 264 266 269 271 273 274 275 275 276 277 278 279 280 282 283 285 286 286 286 286 286 284 281 281 279 281 275 257 263 287 286 280 277 269 267 265 263 271 277 275 260 247 236 219 217 224 233 247 252 256 277 319 322 320 309 325 322 324 325 300 323 309 284 276 274 270 266 265 218 208 278 254 230 252 275 296 299 297 298 299 299 300 300 297 295 299 309
257 260 262 265 266 266 267 268 269 272 274 276 279 280 282 284 285 286 286 287 287 286 284 282 279 279 277 270 271 280 283 274 269 267 265 266 266 270 274 277 273 257 248 239 226 224 225 234 243 246 258 266 277 285 292 308 320 314 312 152 294 341 309 277 275 274 269 260 235 173 159 273 235 248 260 284 295 297 304 300 302 301 300 303 305 308 317 326
256 258 260 261 260 260 261 262 265 268 271 275 279 282 285 287 288 288 288 288 287 285 284 281 279 281 271 265 278 283 272 266 259 255 259 263 267 273 274 270 265 252 242 234 231 231 230 234 243 252 260 259 266 279 301 317 306 297 324 118 274 297 280 283 292 288 285 264 196 168 200 256 245 261 267 290 293 295 302 298 299 297 296 302 305 311 324 354
255 257 258 258 258 258 259 262 265 268 272 277 282 287 290 292 293 291 290 288 286 285 283 280 279 278 270 270 277 276 265 256 250 252 257 262 267 271 271 267 257 244 232 229 231 233 237 240 242 250 261 263 269 289 337 338 303 292 313 308 282 199 261 296 300 290 254 259 171 163 241 259 262 267 269 287 288 291 299 294 292 293 299 310 313 316 321 71
248 251 251 254 255 257 261 264 269 273 279 285 289 294 296 298 299 295 292 290 287 284 281 279 274 262 267 280 279 266 253 243 244 252 250 254 261 265 268 261 242 229 224 227 232 235 242 248 248 248 257 262 229 108 41 359 322 321 196 246 262 233 270 300 305 311 142 121 145 202 250 274 274 266 268 282 286 291 295 288 287 295 309 323 339 36 112 110
243 243 243 248 252 256 261 265 272 280 286 294 298 300 303 304 301 296 292 288 283 280 278 267 260 259 260 268 269 256 249 244 245 244 240 245 251 255 263 248 223 214 214 220 229 231 237 230 205 231 248 252 136 106 49 340 294 305 245 230 245 243 263 280 302 322 74 104 295 262 241 255 268 277 277 282 287 286 280 278 286 300 314 337 56 91 93 81
239 238 237 242 247 252 257 264 272 280 291 299 304 307 309 303 294 290 286 281 275 274 276 245 220 275 263 254 269 270 253 236 232 232 229 229 235 245 238 237 226 189 190 211 215 192 197 196 159 188 319 339 134 131 176 232 224 248 252 254 266 255 260 271 279 303 340 341 297 283 268 264 274 281 280 284 286 278 273 278 292 302 314 76 97 89 81 71
240 239 237 242 246 251 254 262 269 279 292 302 309 310 307 297 287 280 273 265 251 236 262 220 193 204 258 275 295 281 250 223 223 231 229 229 242 247 223 211 208 171 158 169 199 177 163 123 112 130 284 229 213 191 202 218 212 228 243 246 264 264 268 269 263 277 312 319 284 270 268 277 288 283 284 288 286 282 286 296 298 299 66 110 97 88 81 72
242 243 243 244 246 249 250 257 267 281 291 299 306 303 300 303 300 281 264 254 246 247 261 251 243 254 264 282 293 274 247 232 238 244 240 235 231 223 196 177 176 169 166 159 182 188 163 123 150 198 217 222 224 215 214 225 223 234 254 261 263 261 272 273 270 283 327 344 265 262 293 295 290 291 289 285 285 291 298 299 300 320 109 103 94 90 83 78
243 246 247 246 244 246 247 253 262 276 290 296 300 295 297 316 316 296 289 276 268 264 264 262 259 259 263 269 270 269 260 245 244 242 235 218 198 191 184 168 154 195 222 170 134 157 157 155 214 214 219 226 233 227 224 240 241 242 241 248 264 255 261 271 275 285 351 23 267 292 344 305 292 291 284 284 289 306 300 290 113 108 102 94 93 92 88 89
253 253 249 245 243 245 245 251 258 269 286 292 290 279 280 291 281 286 299 290 281 276 267 263 257 254 257 258 257 262 258 242 233 225 220 202 183 188 186 165 155 209 200 143 108 125 168 216 234 227 224 234 258 255 243 253 256 264 257 256 276 269 289 294 289 307 22 19 276 308 324 295 295 283 277 286 301 353 14 111 118 112 103 94 94 92 93 93
268 269 259 249 248 252 251 251 255 265 277 279 277 265 269 282 280 292 296 281 286 286 271 259 255 250 250 250 247 247 242 238 237 222 219 199 184 194 187 166 180 209 181 158 157 162 183 231 239 235 226 227 261 263 256 270 275 262 252 257 274 283 346 284 295 329 338 285 258 296 296 283 286 273 281 309 45 78 87 98 101 103 102 99 97 97 98 95
276 285 280 260 251 257 258 256 256 263 263 254 255 251 262 276 279 310 305 267 282 287 270 254 249 247 243 238 234 233 231 239 245 221 209 194 185 192 191 183 185 200 210 191 183 188 205 224 227 230 215 194 230 257 255 264 286 268 214 206 247 268 239 231 277 330 329 324 346 354 323 283 249 257 282 39 89 87 87 91 87 91 97 99 99 96 95 94
271 280 287 274 257 256 261 264 253 244 238 227 232 235 245 268 287 334 324 287 280 275 264 241 229 234 227 222 224 220 213 229 231 204 193 189 186 184 196 198 190 210 229 206 195 208 236 240 228 236 245 196 208 247 227 190 280 308 244 217 225 239 245 255 329 7 16 341 333 30 8 287 258 254 270 256 94 72 72 84 84 87 92 96 95 91 92 94
258 264 275 273 265 253 255 265 237 200 207 209 205 205 221 253 307 348 349 346 299 253 225 197 201 211 204 205 205 189 185 237 205 184 183 185 189 184 188 203 190 216 227 204 201 220 236 247 218 201 223 184 191 256 227 165 124 314 260 211 179 176 177 9 25 32 45 264 294 36 91 271 301 270 265 258 97 80 68 76 83 89 91 94 93 91 94 92
246 250 261 262 261 247 240 249 215 185 198 207 190 182 211 231 316 1 17 347 286 204 154 158 175 170 171 173 170 160 159 187 160 174 185 186 195 195 200 223 176 219 224 113 28 261 199 164 74 114 140 134 174 259 234 156 126 229 250 110 93 81 81 86 74 77 229 248 313 294 196 256 295 253 260 149 107 96 74 75 80 87 89 92 91 91 92 90
242 244 251 250 252 250 239 234 215 195 194 197 188 188 193 189 217 54 63 298 277 131 132 141 139 154 159 160 163 149 133 148 139 183 194 195 204 192 208 226 176 243 252 123 187 270 174 163 185 145 114 138 201 228 189 147 140 233 228 113 94 107 153 158 109 192 256 20 317 278 187 237 271 260 280 110 127 135 125 119 92 91 93 93 92 90 89 90
242 242 247 247 251 252 241 230 218 207 201 197 195 199 184 175 175 70 96 236 189 107 165 156 135 157 151 148 169 157 140 151 138 173 185 196 199 177 199 231 187 283 274 140 191 258 267 179 189 142 128 198 219 228 162 149 178 221 184 94 58 64 149 138 134 152 7 23 263 253 190 187 269 281 313 84 138 174 163 141 106 103 101 97 97 97 96 96
245 245 248 249 250 246 239 232 223 213 209 205 205 205 189 170 121 112 212 222 96 105 150 148 156 159 143 127 179 196 161 159 140 140 144 175 188 188 19 243 45 59 349 5 255 254 278 81 151 156 196 206 187 161 95 135 158 124 89 49 21 3 20 47 91 90 54 302 252 240 204 186 268 286 228 143 141 163 155 141 130 113 105 101 100 102 103 103
250 251 249 245 242 237 233 232 228 219 213 210 209 200 182 163 115 195 218 199 81 144 135 145 159 144 148 135 157 198 163 144 151 140 123 133 165 205 34 56 22 57 12 339 303 292 328 39 253 224 217 182 115 79 29 52 112 101 75 60 30 337 6 29 7 45 92 253 259 243 203 181 211 262 242 244 119 157 160 161 156 127 109 107 105 107 107 105
252 249 243 236 232 229 227 229 227 216 210 209 205 187 157 156 240 211 215 59 109 189 154 169 181 163 179 156 145 182 162 163 179 158 153 147 146 193 188 174 165 66 330 267 279 320 284 235 255 294 239 175 118 81 344 0 41 84 83 81 70 340 1 7 318 5 203 246 252 232 172 183 218 248 258 331 17 147 144 138 140 129 117 114 112 114 111 108
245 239 231 223 220 218 219 223 221 207 202 199 193 176 138 205 227 184 182 202 200 199 132 127 150 155 154 144 168 181 152 179 189 177 176 151 153 227 245 222 178 157 236 209 275 340 301 296 281 334 284 191 152 146 222 298 82 125 133 131 128 119 65 263 262 267 260 264 258 245 28 326 265 283 300 43 31 64 100 114 125 124 122 120 119 119 113 109
229 224 218 215 214 213 213 217 213 199 192 188 180 159 143 211 224 155 192 214 235 31 82 88 102 108 124 161 199 176 161 203 179 167 171 143 150 233 256 248 209 178 171 174 194 188 213 305 243 189 233 177 168 183 171 144 149 175 163 140 145 160 173 218 231 218 247 273 278 283 350 221 219 329 62 84 71 76 94 107 114 115 119 122 122 121 114 108
214 213 212 213 212 211 210 211 205 193 186 180 171 170 198 204 201 151 199 216 160 83 21 38 92 102 169 234 224 192 194 222 163 143 169 169 174 202 203 220 209 185 144 161 232 181 179 253 247 229 155 157 170 210 151 112 74 224 141 115 166 192 173 204 234 201 197 283 288 268 237 224 166 92 69 82 78 75 84 95 101 104 113 120 121 118 114 110
210 211 211 212 210 208 205 203 198 191 185 175 170 225 212 201 179 180 201 190 151 124 98 27 84 114 240 267 254 230 194 167 153 134 215 209 201 217 206 209 200 185 169 169 213 181 172 255 279 13 57 163 166 264 148 124 186 203 108 177 223 182 145 183 274 248 153 253 261 199 244 283 30 68 53 66 71 68 71 82 92 101 114 122 123 121 118 112
205 208 211 212 211 208 204 199 193 192 189 181 199 222 194 200 206 198 170 118 133 124 132 184 170 159 209 239 226 217 167 124 159 146 225 232 236 225 198 193 332 188 185 179 212 206 169 261 282 91 136 243 254 34 23 60 100 137 165 228 238 97 99 120 260 290 264 246 262 267 259 273 285 252 57 71 75 71 67 78 90 108 127 132 131 129 125 115
206 211 218 219 215 209 203 198 195 198 197 195 220 214 178 207 214 202 177 133 125 111 130 203 201 166 186 205 227 202 164 179 179 157 202 234 238 209 167 153 3 17 158 154 169 234 122 257 291 286 150 246 16 52 5 12 56 120 175 218 99 94 291 325 150 220 243 247 271 276 258 255 226 208 153 120 126 110 98 101 107 132 148 145 143 141 137 131
211 213 224 228 220 211 203 200 201 205 210 216 220 210 175 213 230 211 190 138 111 128 149 206 195 179 197 195 218 190 165 186 180 162 168 209 223 226 95 141 64 17 35 117 152 269 93 140 283 306 107 43 29 53 199 287 11 48 49 358 41 166 195 224 205 194 218 248 266 260 253 265 251 202 159 150 147 133 134 138 153 176 167 159 159 160 165 182
200 193 195 209 217 211 201 199 205 211 221 226 208 193 124 182 246 229 214 196 123 145 195 210 182 204 226 220 237 213 186 201 185 175 193 202 216 336 38 91 132 41 30 73 106 45 65 132 240 296 344 50 39 208 170 172 19 32 35 336 278 238 213 265 255 186 171 229 259 257 253 261 263 213 146 146 148 154 162 158 180 190 180 177 182 191 213 227
181 166 185 132 147 209 196 194 211 226 231 230 192 121 153 202 258 245 231 222 209 173 159 161 174 212 216 225 232 200 183 206 195 196 211 225 247 225 319 19 98 154 43 52 61 66 97 157 184 270 312 159 228 234 163 146 147 144 174 212 206 207 232 275 267 215 169 203 207 238 268 269 253 224 149 148 158 171 169 165 183 194 190 192 206 225 238 238
182 161 181 147 112 197 187 187 232 252 255 239 214 202 206 206 220 229 218 206 202 188 158 153 187 216 226 237 232 207 183 206 208 214 218 235 240 189 351 13 93 111 93 93 153 61 102 118 131 254 251 220 239 258 275 260 189 164 191 228 196 186 168 211 250 238 182 248 143 167 262 270 257 251 179 160 170 173 173 176 186 198 204 215 235 243 238 236
188 186 192 192 197 187 178 188 234 238 257 247 225 227 219 206 206 206 197 186 185 179 177 180 178 189 221 233 230 236 218 214 222 216 214 208 196 254 329 82 109 88 83 129 209 31 73 88 91 284 290 301 302 324 12 7 22 153 310 329 177 190 163 172 220 222 220 259 276 270 252 221 216 253 221 180 179 176 185 194 198 211 229 240 245 242 236 238
195 197 200 205 198 185 181 201 212 214 234 228 219 229 223 225 222 204 191 193 194 175 174 199 178 182 203 204 210 227 213 214 237 218 203 173 167 231 4 99 121 90 70 162 174 151 129 120 125 196 311 321 332 347 15 15 28 130 258 281 133 127 120 111 156 191 228 229 215 242 249 209 170 202 206 190 187 193 213 219 222 239 256 255 243 235 234 238
174 188 195 195 191 188 195 208 199 215 230 220 223 225 217 230 229 216 207 204 205 189 168 208 194 182 190 192 204 219 207 207 233 215 172 126 125 40 65 98 134 125 101 120 135 140 153 158 133 138 211 246 272 273 226 301 338 269 266 292 269 158 182 236 65 178 229 248 211 231 246 263 258 223 207 210 215 231 248 257 260 261 266 260 240 226 225 226
168 177 182 182 187 195 208 213 204 218 228 212 227 227 214 228 235 216 212 217 219 206 183 188 187 177 191 192 193 215 219 213 202 179 149 141 178 332 65 96 117 126 120 114 120 123 114 155 169 164 195 225 234 229 194 125 143 255 271 286 281 255 197 156 120 172 204 232 263 248 244 266 281 277 261 229 248 277 287 295 296 290 277 251 223 210 213 221
181 194 180 167 182 203 217 219 211 211 210 202 214 222 212 220 232 216 212 213 209 201 193 189 180 181 195 187 183 212 216 203 187 182 167 143 133 52 71 85 100 123 125 112 115 110 96 248 226 181 208 235 223 221 232 85 166 223 242 264 269 264 213 160 179 210 200 212 260 258 254 251 264 274 279 270 268 277 280 289 296 297 267 205 186 184 197 209
194 239 192 176 179 203 211 212 210 209 216 215 222 250 218 206 203 209 210 205 197 195 197 218 199 193 187 174 174 198 196 197 208 196 172 149 134 102 51 32 70 124 116 88 98 105 110 238 241 168 219 254 246 244 312 55 219 227 239 255 261 258 235 202 220 224 206 224 255 262 268 264 260 270 286 291 289 287 249 257 289 277 162 160 160 166 171 175
213 265 228 193 202 223 211 207 204 207 218 220 226 249 226 196 203 208 185 162 209 205 200 214 213 196 185 173 169 181 188 191 205 209 168 142 143 135 117 6 12 123 96 76 84 97 103 234 239 159 225 265 265 256 243 218 251 262 261 256 258 263 250 221 229 228 205 223 246 259 268 267 268 274 281 286 291 285 128 132 130 133 140 145 153 169 179 199
210 252 263 248 260 250 220 203 191 200 219 217 224 240 227 202 215 213 174 174 203 209 204 207 201 188 192 192 184 195 201 176 176 195 177 156 162 165 168 192 176 108 70 75 356 45 92 187 233 118 237 281 274 177 179 223 243 267 271 264 260 264 262 252 248 241 230 238 245 252 259 265 276 281 266 263 215 129 125 123 128 136 142 151 168 192 219 233
212 242 298 317 288 222 200 184 177 191 215 212 220 225 215 220 213 174 46 268 167 173 215 193 168 137 170 186 188 197 178 138 137 148 140 140 151 144 146 171 150 126 103 145 176 26 94 182 317 90 116 279 287 133 190 247 301 287 274 265 258 254 253 253 246 227 232 245 250 249 249 257 269 254 219 152 128 133 128 120 127 140 151 171 220 252 248 235
225 254 272 293 280 219 195 169 175 194 208 210 217 218 213 221 204 166 181 318 115 90 265 190 161 121 125 176 185 174 146 126 119 113 99 96 101 88 78 133 148 145 147 150 148 142 131 140 153 121 161 271 277 139 164 39 8 292 265 252 248 247 247 250 251 241 236 238 245 246 241 242 238 209 184 152 150 160 157 148 153 172 188 226 256 264 264 257